Regional Weather Roundup
Issued by NWS

Home | Current Version | Previous Version | Graphics & Text | Print | Product List | Glossary Off
Versions: 1 2 3 4 5 6 7 8 9 10 11 12 13 14 15 16 17 18 19 20 21 22 23 24 25 26 27 28 29 30 31 32 33 34 35 36 37 38 39 40 41 42 43 44 45 46 47 48 49 50

000
ASUS43 KMKX 292200
RWRWI

WISCONSIN REGIONAL WEATHER ROUNDUP
NATIONAL WEATHER SERVICE MILWAUKEE/SULLIVAN WI
500 PM CDT FRI JUL 29 2016

NOTE: "FAIR" INDICATES FEW OR NO CLOUDS BELOW 12,000 FEET WITH NO
SIGNIFICANT WEATHER AND/OR OBSTRUCTIONS TO VISIBILITY.

WIZ001-002-006>008-014>016-023>028-292300-
NORTHWEST WISCONSIN

CITY           SKY/WX    TMP DP  RH WIND       PRES   REMARKS
SUPERIOR ARPT  SUNNY     72  55  54 E9        30.07F
ASHLAND        SUNNY     73  58  59 NE12      30.08S
HAYWARD        MOSUNNY   76  56  49 N9        30.06S
SIREN          SUNNY     75  50  41 NE7       30.05F
CUMBERLAND     SUNNY     73  50  43 NE5       30.05F
RICE LAKE      SUNNY     76  53  45 CALM      30.05F
CHETEK         SUNNY     77  53  44 NE3       30.04F
LADYSMITH      PTSUNNY   76  57  52 N3        30.05F
EAU CLAIRE     NOT AVBL
MENOMONIE      SUNNY     81  47  30 N6        30.02F HX  80
NEW RICHMOND   SUNNY     76  49  37 NE8       30.04S
OSCEOLA        SUNNY     76  55  48 NE9       30.06F
$$

WIZ003>005-009-010-017-018-292300-
NORTH CENTRAL WISCONSIN

CITY           SKY/WX    TMP DP  RH WIND       PRES   REMARKS
MANITOWISH WTR MOSUNNY   75  53  45 N3        30.06F
ARBOR VITAE    MOSUNNY   77  55  46 N7        30.06S
WOODRUFF       MOSUNNY   77  55  46 N7        30.06S
RHINELANDER    MOSUNNY   76  54  46 E7        30.05F
EAGLE RIVER    SUNNY     77  50  38 E3        30.05F
LAND O LAKES   PTSUNNY   77  52  41 CALM      30.07S
PHILLIPS       MOSUNNY   76  57  51 NE5       30.04F
TOMAHAWK       CLOUDY    74  56  51 CALM      30.04F
MEDFORD        CLOUDY    72  60  64 E5        30.03F
MERRILL        CLOUDY    73  62  68 E3        30.05S
$$

WIZ029-030-035-036-043>047-292300-
CENTRAL WISCONSIN

CITY           SKY/WX    TMP DP  RH WIND       PRES   REMARKS
WAUSAU         CLOUDY    73  61  65 E7        30.02S
MOSINEE        NOT AVBL
MARSHFIELD     CLOUDY    74  59  59 E7        30.02S
STEVENS POINT  CLOUDY    69  61  75 E6        30.03S
WAUPACA        CLOUDY    78  64  61 NE8       30.01S HX  80
WAUTOMA        CLOUDY    70  65  84 NE8       30.01S
WISC RAPIDS    CLOUDY    72  62  71 E7        30.03S
CAMP DOUGLAS   NOT AVBL
$$

WIZ011>013-019>022-031-037>040-048>050-292300-
NORTHEAST WISCONSIN

CITY           SKY/WX    TMP DP  RH WIND       PRES   REMARKS
ANTIGO         CLOUDY    69  60  74 CALM      30.05S
SHAWANO        CLOUDY    78  59  50 E10       30.02S HX  80
OCONTO         SUNNY     75  57  54 E9        30.01F
STURGEON BAY   SUNNY     75  53  46 NE14G20   30.03S
GREEN BAY      PTSUNNY   74  64  71 NE14      30.01S
MANITOWOC      NOT AVBL
APPLETON       CLOUDY    73  57  56 E9        30.00S
CLINTONVILLE   CLOUDY    77  59  53 E9        30.01S
OSHKOSH        CLOUDY    75  63  66 NE12      30.00R
$$

WIZ032>034-041-042-053>061-292300-
SOUTHWEST WISCONSIN

CITY           SKY/WX    TMP DP  RH WIND       PRES   REMARKS
LA CROSSE      CLOUDY    76  64  66 E7        29.98S
SPARTA         CLOUDY    73  65  75 E12       30.01S
VIROQUA        CLOUDY    72  64  78 NE7       30.01R
BOSCOBEL       LGT RAIN  69  67  93 CALM      29.99R
PRAIRIE DU CHI CLOUDY    69  64  82 NE5       29.98S
PLATTEVILLE    CLOUDY    72  69  90 NE8       29.97S
$$

WIZ056-057-062-063-064-067-068-292300-
SOUTH CENTRAL WISCONSIN

CITY           SKY/WX    TMP DP  RH WIND       PRES   REMARKS
REEDSBURG      CLOUDY    69  66  90 NE8       29.99S
BARABOO/DELLS  HVY RAIN  67  64  90 NE6       29.99F
LONE ROCK      NOT AVBL
MINERAL POINT  CLOUDY    72  68  88 NE10      29.98R
MADISON        CLOUDY    74  64  71 E15       29.97S
MIDDLETON      CLOUDY    73  66  78 NE12G20   29.98S
WATERTOWN      CLOUDY    72  67  85 NE7       29.98R
MONROE         TSTM      70  68  94 NE9       29.95F
JANESVILLE     CLOUDY    73  66  78 NE12      29.95R
$$

WIZ051-052-058>065-066-070>072-292300-
SOUTHEAST WISCONSIN

CITY           SKY/WX    TMP DP  RH WIND       PRES   REMARKS
MILWAUKEE      PTSUNNY   72  65  78 NE13      29.97F
WAUKESHA       PTSUNNY   72  63  73 NE10G16   29.99S
MILWAUKEE/TIMM MOSUNNY   73  61  64 MISG      29.99S
RACINE         CLOUDY    70  65  84 N8        29.98S
BURLINGTON     CLOUDY    72  64  76 NE12      29.97R
KENOSHA        CLOUDY    72  65  78 NE9       29.96S
FOND DU LAC    CLOUDY    77  64  64 E7        29.99S
SHEBOYGAN      CLOUDY    72  62  71 NE15      30.00S
WEST BEND      CLOUDY    72  63  73 NE8       30.00R
JUNEAU         CLOUDY    72  64  76 E9        30.00S
$$

LSZ147-162-292300-
LAKE SUPERIOR

STATION/POSITION TIME  TEMP    WIND        PRES    WAVE
                       AIR SEA DIR/SP/G            HT/PER
                 (UTC) (F)     (DEG/KT/KT) (MB)    (FT/S)
W MID LAKE BUOY  2050   63 62   10/  6/  8 1018.6F   0
DEVILS ISLAND    2100   65      10/  8/  8 1019.0F
PORT WING        2100   63      30/ 11/ 11 1019.0F
SAXON HARBOR     2100   68      30/  7/ 10 1018.6S
$$

LMZ867-665-643>646-292300-
LAKE MICHIGAN

STATION/POSITION TIME  TEMP    WIND        PRES    WAVE
                       AIR SEA DIR/SP/G            HT/PER
                 (UTC) (F)     (DEG/KT/KT) (MB)    (FT/S)
CHAMBERS ISLAND  2100   72      50/ 10/ 13 1016.9F
S GREEN BAY BUOY 2100   72 71   70/ 16/ 19 1015.8
N MID LAKE BUOY  2050   70 70   50/ 14/ 14 1016.3F   1/ 3
NORTHPORT PIER   2100   70      60/  9/ 11 1016.9F
SISTER BAY       2121   76      80/  8/ 13   N/A
ALGOMA LAKESHORE 2113           70/ 16/ 20   N/A
KEWAUNEE LAKESHO 2100   70      30/  5/ 10 1015.9F
SHEBOYGAN LAKESH 2100   65      20/ 12/ 12 1016.1S
PORT WASHINGTON  2140   71      40/ 11/ 15 1015.9S
ATWATER BUOY     2100   64 61  360/  8/ 10 1016.8R
MILWAUKEE LAKESH 2110   68      20/ 16/ 17   N/A
S MID LAKE BUOY  2050   73 74   60/ 14/ 17 1013.3R   3/ 6
KENOSHA   LAKESH 2100   71      40/ 13/ 15 1013.9S
$$

TC  - TEMPERATURE IN CELSIUS
VSB - VISIBILITY IN STATUTE MILES
WCI - WIND CHILL INDEX
HX  - HEAT INDEX





USA.gov is the U.S. government's official web portal to all federal, state and local government web resources and services.